Regional Weather Roundup
Issued by NWS

Home | Current Version | Previous Version | Text Only | Print | Product List | Glossary Off
Versions: 1 2 3 4 5 6 7 8 9 10 11 12 13 14 15 16 17 18 19 20 21 22 23 24 25 26 27 28 29 30 31 32 33 34 35 36 37 38 39 40 41 42 43 44 45 46 47 48 49 50

901
ASUS43 KFSD 240502
RWRSD

WEATHER ROUNDUP FOR SOUTH DAKOTA
NATIONAL WEATHER SERVICE SIOUX FALLS SD
1200 AM CDT FRI MAR 24 2017

NOTE: "FAIR" INDICATES FEW OR NO CLOUDS BELOW 12,000 FEET WITH NO
SIGNIFICANT WEATHER AND/OR OBSTRUCTIONS TO VISIBILITY.


SDZ001>005-009-010-012>017-240600-
NORTHWEST AND NORTH CENTRAL SOUTH DAKOTA

CITY           SKY/WX    TMP DP  RH WIND       PRES   REMARKS
BUFFALO          N/A     41  38  89 NW8       29.84F
FAITH            N/A     41  38  89 N8        29.87R
MOBRIDGE       PTCLDY    43  35  73 NE12      29.83R
$$

SDZ012>016-024>037-041>051-057-063-072>074-240600-
SOUTHWEST AND SOUTH CENTRAL SOUTH DAKOTA

CITY           SKY/WX    TMP DP  RH WIND       PRES   REMARKS
RAPID CTY ARPT CLOUDY    40  37  89 NW14      29.90R
PIERRE         CLOUDY    42  36  79 N14       29.84R
CUSTER         CLOUDY    36  31  82 NE13G18   29.89R
ELLSWORTH AFB  CLOUDY    41  41  99 NW15      29.90R
PHILIP         CLOUDY    44  40  85 E5        29.88R
PINE RIDGE     CLOUDY    45  40  82 N8        29.87R
SPEARFISH      CLOUDY    39  39 100 SW6       29.92R
WINNER         FOG       46  45  96 N8        29.82R VSB 1/4
$$

SDZ004>011-016>023-039-040-240600-
NORTHEAST SOUTH DAKOTA

CITY           SKY/WX    TMP DP  RH WIND       PRES   REMARKS
ABERDEEN       CLOUDY    36  34  92 NE7       29.83F FOG
WATERTOWN      CLOUDY    35  34  96 NE6       29.79R
BROOKINGS      CLOUDY    37  36  96 NE9       29.75F FOG
SISSETON         N/A     35  35 100 NE3       29.85R
$$

SDZ017-020-022-023-036>040-048>070-240600-
SOUTHEAST SOUTH DAKOTA

CITY           SKY/WX    TMP DP  RH WIND       PRES   REMARKS
SIOUX FALLS    TSTM      45  40  82 E7        29.77R
HURON          CLOUDY    40  40 100 N9        29.80F
CHAMBERLAIN    CLOUDY    45  42  90 N8        29.79S
MITCHELL       CLOUDY    44  43  96 N10       29.79R FOG
YANKTON        CLOUDY    48  46  93 NE5       29.73R
$$

ABBREVIATIONS USED IN REMARKS
   TC - TEMPERATURE IN CELSIUS
  WCI - WIND CHILL INDEX
   HX - HEAT INDEX
  VSB - VISIBILITY





USA.gov is the U.S. government's official web portal to all federal, state and local government web resources and services.